Location: B�rgermoos
(47.6500°N, 9.0667°E)
Time: 06:54:31
(UTC+00:00)

Transit 4A - All Passes

Search period start: 24 July 2021 00:00
Search period end: 03 August 2021 00:00
Orbit: 872 x 972 km, 66.8° (Epoch: 23 July)

Date Brightness Start Highest point End Pass type
(mag) Time Alt. Az. Time Alt. Az. Time Alt. Az.
24 Jul - 00:50:37 10° S 00:56:20 52° ESE 01:02:00 10° NE visible
24 Jul - 02:37:30 10° WSW 02:42:54 36° NW 02:48:15 10° NNE visible
24 Jul - 04:28:07 10° NW 04:31:04 14° NNW 04:34:01 10° NNE daylight
24 Jul - 06:17:54 10° NNW 06:20:11 12° N 06:22:29 10° NE daylight
24 Jul - 08:03:47 10° NNW 08:08:42 27° NE 08:13:39 10° E daylight
24 Jul - 09:49:48 10° NW 09:55:40 78° WSW 10:01:36 10° SSE daylight
24 Jul - 11:38:13 10° WNW 11:41:04 14° WSW 11:43:56 10° SW daylight
24 Jul - 23:17:41 10° SE 23:20:12 13° ESE 23:22:43 10° ENE visible
25 Jul - 00:59:39 10° SSW 01:05:33 75° ESE 01:11:24 10° NE visible
25 Jul - 02:47:29 10° W 02:52:27 28° NW 02:57:26 10° NNE visible
25 Jul - 04:38:35 10° NW 04:40:56 12° NNW 04:43:18 10° NNE daylight
25 Jul - 06:27:12 10° NNW 06:30:04 14° NNE 06:32:57 10° NE daylight
25 Jul - 08:12:58 10° NNW 08:18:17 35° NE 08:23:39 10° ESE daylight
25 Jul - 09:59:12 10° NW 10:04:54 55° WSW 10:10:41 10° SSE daylight
25 Jul - 23:25:05 10° SSE 23:29:10 20° ESE 23:33:14 10° ENE visible
26 Jul - 01:08:56 10° SW 01:14:51 80° NW 01:20:43 10° NNE visible
26 Jul - 02:57:36 10° W 03:02:07 22° NNW 03:06:37 10° NNE visible
26 Jul - 04:48:57 10° NNW 04:50:51 11° N 04:52:45 10° NNE daylight
26 Jul - 06:36:24 10° NNW 06:39:54 16° NNE 06:43:24 10° ENE daylight
26 Jul - 08:22:10 10° NNW 08:27:47 46° NE 08:33:28 10° ESE daylight
26 Jul - 10:08:41 10° NW 10:14:03 38° WSW 10:19:30 10° S daylight
26 Jul - 23:33:15 10° SSE 23:38:12 29° ESE 23:43:08 10° NE visible
27 Jul - 01:18:24 10° SW 01:24:13 58° NW 01:29:59 10° NNE visible
27 Jul - 03:07:53 10° WNW 03:11:50 18° NNW 03:15:47 10° NNE visible
27 Jul - 04:59:01 10° NNW 05:00:46 11° N 05:02:32 10° NNE daylight
27 Jul - 06:45:35 10° NNW 06:49:41 19° NNE 06:53:46 10° ENE daylight
27 Jul - 08:31:23 10° NNW 08:37:13 62° NE 08:43:05 10° SE daylight
27 Jul - 10:18:21 10° NW 10:23:09 27° WSW 10:28:00 10° SSW daylight
27 Jul - 23:41:49 10° S 23:47:19 41° ESE 23:52:46 10° NE visible
28 Jul - 01:28:04 10° WSW 01:33:39 43° NW 01:39:13 10° NNE visible
28 Jul - 03:18:16 10° WNW 03:21:37 15° NNW 03:24:57 10° NNE visible
28 Jul - 05:08:42 10° NNW 05:10:42 12° N 05:12:41 10° NNE daylight
28 Jul - 06:54:45 10° NNW 06:59:23 23° NNE 07:04:01 10° E daylight
28 Jul - 08:40:41 10° NW 08:46:34 85° ENE 08:52:32 10° SE daylight
28 Jul - 10:28:20 10° WNW 10:32:11 18° WSW 10:36:04 10° SSW daylight
28 Jul - 23:50:42 10° SSW 23:56:29 59° ESE 00:02:13 10° NE visible
29 Jul - 01:37:56 10° WSW 01:43:11 33° NW 01:48:24 10° NNE visible
29 Jul - 03:28:44 10° NW 03:31:27 13° NNW 03:34:12 10° NNE daylight
29 Jul - 05:18:06 10° NNW 05:20:36 13° NNE 05:23:06 10° NE daylight
29 Jul - 07:03:55 10° NNW 07:09:00 29° NE 07:14:07 10° E daylight
29 Jul - 08:50:01 10° NW 08:55:51 69° WSW 09:01:45 10° SSE daylight
29 Jul - 10:39:07 10° W 10:41:08 12° WSW 10:43:09 10° WSW daylight
29 Jul - 22:17:04 10° SE 22:20:16 15° ESE 22:23:28 10° ENE visible
29 Jul - 23:59:50 10° SSW 00:05:44 84° ESE 00:11:36 10° NE visible
30 Jul - 01:47:57 10° W 01:52:47 26° NW 01:57:35 10° NNE visible
30 Jul - 03:39:10 10° NNW 03:41:21 12° N 03:43:31 10° NNE daylight
30 Jul - 05:27:22 10° NNW 05:30:28 14° NNE 05:33:34 10° NE daylight
30 Jul - 07:13:07 10° NNW 07:18:33 38° NE 07:24:03 10° ESE daylight
30 Jul - 08:59:26 10° NW 09:05:03 48° WSW 09:10:45 10° S daylight
30 Jul - 22:24:50 10° SSE 22:29:16 22° ESE 22:33:40 10° ENE visible
31 Jul - 00:09:10 10° SW 00:15:04 71° NW 00:20:54 10° NNE visible
31 Jul - 01:58:08 10° WNW 02:02:27 21° NNW 02:06:45 10° NNE visible
31 Jul - 03:49:27 10° NNW 03:51:16 11° N 03:53:04 10° NNE daylight
31 Jul - 05:36:34 10° NNW 05:40:16 17° NNE 05:44:00 10° ENE daylight
31 Jul - 07:22:19 10° NNW 07:28:02 51° NE 07:33:49 10° SE daylight
31 Jul - 09:09:00 10° NW 09:14:11 34° WSW 09:19:28 10° S daylight
31 Jul - 22:33:09 10° S 22:38:19 32° ESE 22:43:27 10° NE visible
01 Aug - 00:18:43 10° SW 00:24:26 52° NW 00:30:09 10° NNE visible
01 Aug - 02:08:27 10° WNW 02:12:11 17° NNW 02:15:56 10° NNE visible
01 Aug - 03:59:23 10° NNW 04:01:11 11° N 04:02:59 10° NNE daylight
01 Aug - 05:45:44 10° NNW 05:50:01 20° NNE 05:54:20 10° ENE daylight
01 Aug - 07:31:34 10° NNW 07:37:26 70° NE 07:43:22 10° SE daylight
01 Aug - 09:18:44 10° WNW 09:23:16 23° WSW 09:27:50 10° SSW daylight
01 Aug - 22:41:50 10° S 22:47:27 47° ESE 22:53:01 10° NE visible
02 Aug - 00:28:27 10° WSW 00:33:55 39° NW 00:39:22 10° NNE visible
02 Aug - 02:18:53 10° NW 02:21:59 14° NNW 02:25:08 10° NNE visible
02 Aug - 04:08:57 10° NNW 04:11:06 12° N 04:13:16 10° NNE daylight
02 Aug - 05:54:54 10° NNW 05:59:42 25° NE 06:04:32 10° E daylight
02 Aug - 07:40:52 10° NW 07:46:46 86° WSW 07:52:44 10° SSE daylight
02 Aug - 09:28:53 10° WNW 09:32:16 16° WSW 09:35:40 10° SW daylight
02 Aug - 21:09:45 10° ESE 21:11:24 11° E 21:13:03 10° E visible
02 Aug - 22:50:49 10° SSW 22:56:39 67° ESE 23:02:27 10° NE visible
